Heat Advisory
until 8:00 PM CDT
| Temperature (°F) | Max | Average | Min |
|---|---|---|---|
| Max Temperature | 104 | 93.65 | 81 |
| Avg Temperature | 90.5 | 82.24 | 75.27 |
| Min Temperature | 81 | 72.71 | 61 |
| Precipitation (in) | Max | Average | Min | Sum |
|---|---|---|---|---|
| Precipitation | 0.2 | 0.01 | 0 | 0.2 |
| Dew Point (°F) | Max | Average | Min |
|---|---|---|---|
| Dew Point | 73.71 | 69.73 | 61 |
| Wind (mph) | Max | Average | Min |
|---|---|---|---|
| Wind | 29 | 13.32 | 8 |
| Gust Wind | 46 | 22.47 | 16 |
| Sea Level Pressure (in) | Max | Average | Min |
|---|---|---|---|
| Sea Level Pressure | 29.79 | 29.7 | 29.46 |
| Date | Temp High/Low | Dew Pt High/Low | Humidity | Wind | Max Wind | Wind Gust | Pressure | Precip. | Condition |
|---|---|---|---|---|---|---|---|---|---|
| 8/1/2026 | 81 °F / 72 °F | 77 °F / 63 °F | 76 % | 18 mph | - | 29.47 in | 0 in | ||
| 8/2/2026 | 84 °F / 70 °F | 71 °F / 66 °F | 78 % | 14 mph | - | 29.52 in | 0 in | ||
| 8/3/2026 | 87 °F / 69 °F | 71 °F / 67 °F | 77 % | 10 mph | - | 29.64 in | 0 in | ||
| 8/4/2026 | 90 °F / 67 °F | 72 °F / 66 °F | 75 % | 10 mph | - | 29.71 in | 0 in | ||
| 8/5/2026 | 92 °F / 67 °F | 72 °F / 66 °F | 72 % | 10 mph | - | 29.74 in | 0 in | ||
| 8/6/2026 | 92 °F / 72 °F | 76 °F / 69 °F | 73 % | 14 mph | - | 29.78 in | 0 in | ||
| 8/7/2026 | 91 °F / 74 °F | 76 °F / 69 °F | 73 % | 10 mph | - | 29.77 in | 0 in | ||
| 8/8/2026 | 91 °F / 76 °F | 75 °F / 70 °F | 74 % | 10 mph | - | 29.77 in | 0 in | ||
| 8/9/2026 | 96 °F / 70 °F | 76 °F / 69 °F | 73 % | 14 mph | - | 29.73 in | 0 in | ||
| 8/10/2026 | 97 °F / 74 °F | 75 °F / 70 °F | 67 % | 15 mph | - | 29.76 in | 0 in | ||
| 8/11/2026 | 97 °F / 76 °F | 77 °F / 73 °F | 70 % | 15 mph | - | 29.71 in | 0 in | ||
| 8/12/2026 | 99 °F / 77 °F | 75 °F / 72 °F | 64 % | 20 mph | - | 29.61 in | 0 in | ||
| 8/13/2026 | 100 °F / 78 °F | 76 °F / 71 °F | 61 % | 18 mph | - | 29.63 in | 0 in | ||
| 8/14/2026 | 101 °F / 78 °F | 75 °F / 69 °F | 61 % | 15 mph | - | 29.73 in | 0 in | ||
| 8/15/2026 | 101 °F / 74 °F | 74 °F / 60 °F | 60 % | 13 mph | - | 29.79 in | 0 in | ||
| 8/16/2026 | 104 °F / 79 °F | 74 °F / 70 °F | 55 % | 13 mph | - | 29.73 in | 0 in | ||
| 8/17/2026 | 95 °F / 77 °F | 75 °F / 71 °F | 66 % | 10 mph | - | 29.7 in | 0 in | ||
| 8/18/2026 | 93 °F / 73 °F | 72 °F / 67 °F | 67 % | 9 mph | - | 29.72 in | 0 in | ||
| 8/19/2026 | 92 °F / 73 °F | 78 °F / 70 °F | 73 % | 20 mph | - | 29.63 in | 0 in | ||
| 8/20/2026 | 97 °F / 78 °F | 76 °F / 67 °F | 67 % | 15 mph | - | 29.63 in | 0 in | ||
| 8/21/2026 | 97 °F / 74 °F | 73 °F / 59 °F | 66 % | 14 mph | - | 29.71 in | 0 in | ||
| 8/22/2026 | 98 °F / 70 °F | 71 °F / 67 °F | 77 % | 29 mph | - | 29.7 in | 0.2 in | ||
| 8/23/2026 | 89 °F / 70 °F | 71 °F / 62 °F | 70 % | 8 mph | - | 29.74 in | 0 in | ||
| 8/24/2026 | 91 °F / 70 °F | 72 °F / 63 °F | 66 % | 12 mph | - | 29.72 in | 0 in | ||
| 8/25/2026 | 94 °F / 72 °F | 75 °F / 66 °F | 70 % | 9 mph | - | 29.7 in | 0 in | ||
| 8/26/2026 | 92 °F / 73 °F | 75 °F / 68 °F | 74 % | 16 mph | - | 29.66 in | 0 in | ||
| 8/27/2026 | 96 °F / 70 °F | 75 °F / 62 °F | 68 % | 13 mph | - | 29.68 in | 0 in | ||
| 8/28/2026 | 93 °F / 69 °F | 66 °F / 59 °F | 61 % | 12 mph | - | 29.78 in | 0 in | ||
| 8/29/2026 | 93 °F / 65 °F | 65 °F / 56 °F | 60 % | 9 mph | - | 29.78 in | 0 in | ||
| 8/30/2026 | 97 °F / 61 °F | 66 °F / 56 °F | 59 % | 10 mph | - | 29.74 in | 0 in | ||
| 8/31/2026 | 79 °F / 77 °F | 71 °F / 70 °F | 77 % | 8 mph | - | 29.73 in | 0 in |